Location: Newark
(40.9908°N, 0.0353°W)
Time: 00:23:40
(UTC+00:00)

Envisat - Visible Passes

Search period start: 20 October 2019 00:00
Search period end: 30 October 2019 00:00
Orbit: 764 x 766 km, 98.1° (Epoch: 19 October)

Date Brightness Start Highest point End Pass type
(mag) Time Alt. Az. Time Alt. Az. Time Alt. Az.
20 Oct 5.5 19:10:51 10° SW 19:14:44 22° W 19:18:38 10° NW visible
21 Oct 6.3 05:41:09 10° NE 05:44:00 15° E 05:46:51 10° SE visible
21 Oct 4.0 18:32:51 10° S 18:37:45 48° W 18:42:40 10° NNW visible
22 Oct 2.9 17:55:54 10° SSE 18:00:57 76° ENE 18:06:03 10° N visible
22 Oct 6.2 19:38:33 10° WSW 19:40:31 12° W 19:42:29 10° WNW visible
23 Oct 5.1 18:59:05 10° SSW 19:03:23 28° W 19:07:43 10° NW visible
24 Oct 6.6 05:30:58 10° ENE 05:32:36 11° E 05:34:15 10° ESE visible
24 Oct 3.5 18:21:26 10° S 18:26:27 62° W 18:31:30 10° NNW visible
25 Oct 3.0 17:44:44 10° SSE 17:49:43 60° ENE 17:54:43 10° N visible
25 Oct 5.9 19:26:07 10° SW 19:29:07 16° W 19:32:09 10° NW visible
26 Oct 6.0 05:54:36 10° NE 05:58:24 21° E 06:02:10 10° SE visible
26 Oct 4.7 18:47:26 10° SSW 18:52:03 35° W 18:56:41 10° NNW visible
27 Oct 3.1 18:10:06 10° S 18:15:10 79° WSW 18:20:17 10° NNW visible
28 Oct 3.2 17:33:39 10° SE 17:38:30 47° ENE 17:43:21 10° N visible
28 Oct 5.6 19:14:04 10° SW 19:17:45 20° W 19:21:26 10° NW visible
29 Oct 6.1 05:43:51 10° NE 05:47:01 16° E 05:50:10 10° SE visible
29 Oct 4.2 18:35:54 10° S 18:40:44 44° W 18:45:36 10° NNW visible
